Weather History for KAVP - March, 2013

Change the Weather History Date:

Monday, March 18, 2013

  Actual Average Record
Temperature  
Mean Temperature 26 °F 37 °F  
Max Temperature 32 °F 47 °F 74 °F (2012)
Min Temperature 19 °F 28 °F -1 °F (1916)
Degree Days  
Heating Degree Days 39 28  
Month to date heating degree days 555 548  
Since 1 July heating degree days 4779 5154  
Cooling Degree Days 0 0  
Month to date cooling degree days 0 0  
Year to date cooling degree days 0 0  
Moisture  
Dew Point 18 °F    
Average Humidity 64    
Maximum Humidity 92    
Minimum Humidity 36    
Precipitation  
Precipitation 0.26 in 0.08 in 0.75 in (1936)
Month to date precipitation 1.31 1.36  
Year to date precipitation 4.64 5.76  
Sea Level Pressure  
Sea Level Pressure 30.14 in    
Wind  
Wind Speed 7 mph (ESE)    
Max Wind Speed 14 mph    
Max Gust Speed 24 mph    
Visibility 5 miles    
Events Fog , Snow    
T = Trace of Precipitation, MM = Missing Value Source: NWS Daily Summary

Daily Weather History Graph

Daily Weather History Graph

Search for Another Location

Airport or City:

Trip Planner

Search our weather history database for the weather conditions in past years. The results will help you decide how hot, cold, wet, or windy it might be!

Date:

Astronomy

Mar. 18, 2013 Rise Set
Actual Time 7:09 AM EDT 7:13 PM EDT
Civil Twilight 6:41 AM EDT 7:40 PM EDT
Nautical Twilight 6:09 AM EDT 8:12 PM EDT
Astronomical Twilight 5:36 AM EDT 8:45 PM EDT
Moon 11:03 AM EDT (3/18) 1:14 AM EDT (3/18)
Length of Visible Light 12h 58m
Length of Day
12h 03m
Waxing Crescent, 40% of the Moon is Illuminated
Mar 18
Waxing Crescent
Mar 19
First Quarter
Mar 27
Full
Apr 3
Last Quarter
Apr 10
New

Hourly Weather History & Observations

Time (EDT) Temp. Windchill Dew Point Humidity Pressure Visibility Wind Dir Wind Speed Gust Speed Precip Events Conditions
12:54 AM 23.0 °F 18.4 °F 12.9 °F 65% 30.30 in 10.0 mi Variable 3.5 mph - N/A   Clear
1:54 AM 21.0 °F 14.6 °F 12.0 °F 68% 30.32 in 10.0 mi East 4.6 mph - N/A   Clear
2:54 AM 19.9 °F 14.9 °F 10.9 °F 68% 30.33 in 10.0 mi East 3.5 mph - N/A   Clear
3:54 AM 19.0 °F 12.3 °F 10.0 °F 68% 30.34 in 10.0 mi East 4.6 mph - N/A   Clear
4:54 AM 19.0 °F 12.3 °F 10.0 °F 68% 30.34 in 10.0 mi ENE 4.6 mph - N/A   Clear
5:54 AM 19.9 °F 11.1 °F 10.0 °F 65% 30.34 in 10.0 mi ENE 6.9 mph - N/A   Clear
6:54 AM 19.9 °F 12.1 °F 9.0 °F 62% 30.34 in 10.0 mi NE 5.8 mph - N/A   Clear
7:54 AM 21.9 °F 14.5 °F 9.0 °F 58% 30.33 in 10.0 mi Variable 5.8 mph - N/A   Clear
8:54 AM 24.1 °F 16.0 °F 7.0 °F 48% 30.34 in 10.0 mi Variable 6.9 mph - N/A   Clear
9:54 AM 26.1 °F 17.6 °F 5.0 °F 41% 30.32 in 10.0 mi SSE 8.1 mph - N/A   Clear
10:54 AM 30.0 °F 21.7 °F 6.1 °F 36% 30.29 in 10.0 mi South 9.2 mph 17.3 mph N/A   Clear
11:54 AM 30.9 °F 22.8 °F 6.1 °F 35% 30.27 in 10.0 mi South 9.2 mph 19.6 mph N/A   Overcast
12:54 PM 30.9 °F 23.5 °F 8.1 °F 38% 30.26 in 10.0 mi South 8.1 mph - N/A   Overcast
1:54 PM 30.0 °F 22.4 °F 10.9 °F 45% 30.25 in 10.0 mi South 8.1 mph - N/A   Overcast
2:54 PM 30.9 °F 24.3 °F 17.1 °F 57% 30.19 in 10.0 mi Variable 6.9 mph - 0.00 in   Overcast
3:54 PM 30.9 °F 22.2 °F 18.0 °F 59% 30.12 in 10.0 mi SE 10.4 mph 21.9 mph N/A   Overcast
4:19 PM 30.2 °F 21.3 °F 19.4 °F 64% 30.10 in 3.0 mi SE 10.4 mph 18.4 mph 0.00 in Snow Light Snow
4:29 PM 30.2 °F 22.6 °F 19.4 °F 64% 30.10 in 1.8 mi ESE 8.1 mph 19.6 mph 0.00 in Snow Light Snow
4:40 PM 28.4 °F 19.7 °F 21.2 °F 74% 30.10 in 0.5 mi ESE 9.2 mph 17.3 mph 0.00 in Snow Snow
4:46 PM 28.4 °F 22.2 °F 23.0 °F 80% 30.09 in 0.2 mi Variable 5.8 mph - 0.00 in Snow Heavy Snow
4:54 PM 28.0 °F 21.7 °F 24.1 °F 85% 30.12 in 0.2 mi Variable 5.8 mph - 0.02 in Fog , Snow Snow
5:52 PM 28.4 °F 24.6 °F 24.8 °F 86% 30.07 in 0.2 mi Variable 3.5 mph - 0.10 in Fog , Snow Heavy Snow
5:54 PM 28.0 °F 22.8 °F 26.1 °F 92% 30.10 in 0.2 mi Variable 4.6 mph - 0.11 in Fog , Snow Heavy Snow
6:01 PM 28.4 °F 23.3 °F 24.8 °F 86% 30.06 in 0.2 mi Variable 4.6 mph - 0.01 in Fog , Snow Heavy Snow
6:23 PM 28.4 °F 23.3 °F 24.8 °F 86% 30.05 in 0.5 mi Variable 4.6 mph - 0.03 in Fog , Snow Snow
6:38 PM 28.4 °F 21.2 °F 24.8 °F 86% 30.04 in 0.8 mi ENE 6.9 mph - 0.04 in Snow Light Snow
6:46 PM 28.4 °F 23.3 °F 24.8 °F 86% 30.04 in 1.0 mi Variable 4.6 mph - 0.04 in Snow Light Snow
6:54 PM 28.0 °F 24.2 °F 24.1 °F 85% 30.07 in 1.0 mi Variable 3.5 mph - 0.04 in Snow Light Snow
7:52 PM 28.4 °F 23.3 °F 24.8 °F 86% 30.01 in 1.0 mi Variable 4.6 mph - 0.03 in Snow Light Snow
7:54 PM 28.0 °F 24.2 °F 24.1 °F 85% 30.04 in 1.0 mi Variable 3.5 mph - 0.03 in Snow Light Snow
8:16 PM 28.4 °F 23.3 °F 24.8 °F 86% 30.01 in 1.8 mi Variable 4.6 mph - N/A Snow Light Snow
8:26 PM 28.4 °F 21.2 °F 23.0 °F 80% 30.00 in 2.0 mi Variable 6.9 mph - 0.01 in Snow Light Snow
8:40 PM 28.4 °F 20.4 °F 21.2 °F 74% 30.00 in 1.5 mi ENE 8.1 mph - 0.01 in Snow Light Snow
8:54 PM 28.0 °F 20.8 °F 23.0 °F 81% 30.03 in 1.8 mi Variable 6.9 mph - 0.01 in Snow Light Snow
9:01 PM 28.4 °F 22.2 °F 21.2 °F 74% 30.00 in 2.5 mi Variable 5.8 mph - 0.01 in Snow Light Snow
9:11 PM 28.4 °F 22.2 °F 21.2 °F 74% 29.99 in 3.0 mi Variable 5.8 mph - 0.01 in Snow Light Snow
9:45 PM 28.4 °F 23.3 °F 21.2 °F 74% 29.98 in 2.5 mi Variable 4.6 mph - 0.02 in Snow Light Snow
9:54 PM 28.9 °F 22.8 °F 21.9 °F 75% 30.01 in 3.0 mi Variable 5.8 mph - 0.02 in Snow Light Snow
10:21 PM 28.4 °F 21.2 °F 23.0 °F 80% 29.95 in 2.5 mi Variable 6.9 mph 18.4 mph 0.02 in Snow Light Snow
10:29 PM 28.4 °F 21.2 °F 23.0 °F 80% 29.95 in 4.0 mi Variable 6.9 mph 17.3 mph 0.02 in Snow Light Snow
10:54 PM 30.0 °F 22.4 °F 23.0 °F 75% 29.94 in 6.0 mi ESE 8.1 mph 18.4 mph 0.02 in   Overcast
11:54 PM 30.9 °F 22.2 °F 24.1 °F 76% 29.90 in 8.0 mi ENE 10.4 mph 20.7 mph 0.01 in   Overcast